Flag for Papua New Guinea Weather past 2 weeks in Lae, Papua New Guinea

Now
79 °F

Passing clouds.


Feels Like: 82 °F
Forecast: 73 / 90 °F
Wind: No wind

Location: Moresby

Current Time: Mar 29, 2015 at 4:17:54 AM

Latest Report: Mar 29, 2015 at 3:00 AM


Visibility: N/A

Pressure: 29.80 "Hg

Humidity: 89%

Dew point: 75 °F

Location of LaeLocation

Historic Weather in Lae — Graph

°F

Lae temperature yesterday

Maximum temperature yesterday: 88 °F (at 1:00 PM)
Minimum temperature yesterday: 75 °F (at 12:00 AM)
Average temperature yesterday: 79 °F

Past Weeks' High & Low Weather Summary

 TemperatureHumidityPressure
High90 °F (Mar 14, 1:00 PM)100% (Mar 15, 9:00 PM)29.92 "Hg (Mar 15, 9:00 PM)
Low41 °F (Mar 23, 5:00 AM)17% (Mar 18, 1:00 PM)29.62 "Hg (Mar 14, 2:00 PM)
Average80 °F82%29.82 "Hg
* Reported Mar 14 3:00 AM — Mar 29 3:00 AM, Lae, Weather by CustomWeather, © 2015

Note: Actual official high and low records may vary slightly from our data, if they occured in-between our weather recording intervals... More about our weather records

Advertising

Lae weather history for previous 24 hours

 ConditionsComfort  
Time TempWeatherWind HumidityBarometerVisibility
3:00 AM
Sun, Mar 29
79 °FPassing clouds.No wind89%29.80 "HgN/A
2:00 AM79 °FMostly cloudy.No wind89%29.83 "HgN/A
1:00 AM79 °FPassing clouds.3 mph89%29.83 "HgN/A
12:00 AM79 °FPassing clouds.No wind84%29.86 "HgN/A
10:00 PM
Sat, Mar 28
79 °FPartly cloudy.No wind89%29.89 "HgN/A
5:00 PM84 °FScattered clouds.7 mph74%29.80 "HgN/A
2:00 PM84 °FScattered clouds.6 mph70%29.80 "HgN/A
1:00 PM88 °FScattered clouds.12 mph62%29.83 "HgN/A
12:00 PM86 °FScattered clouds.6 mph66%29.86 "HgN/A
11:00 AM86 °FBroken clouds.3 mph66%29.89 "HgN/A
9:00 AM84 °FFog.N/A70%29.92 "HgN/A
8:00 AM79 °FPartly sunny.2 mph84%29.89 "HgN/A
7:00 AM75 °FScattered clouds.No wind94%29.86 "HgN/A
6:00 AM75 °FPassing clouds.No wind94%29.86 "HgN/A
5:00 AM75 °FPassing clouds.No wind94%29.83 "HgN/A
4:00 AM75 °FPassing clouds.No wind89%29.83 "HgN/A
Weather by CustomWeather, © 2015

See weather overviewHow to use our weather pages